User: anonymous   Login
Location: *
(45.1961°N, 1.9694°E)
Time: 10:41:14
(UTC+00:00)
Language:

Cosmos 1048 Rocket - Orbit

View from above orbital plane
View from above orbital plane
View from above satellite
View from above satellite

Ground track
Ground track

The orbit data is extracted from the following two-line orbital elements,

1 11112U 78105B   19288.74198154  .00000052  00000-0  26318-4 0  9995
2 11112  74.0329  41.3386 0034080 348.5540  11.4834 14.37240310141947
Epoch (UTC): 15 October 2019 17:48:27
Eccentricity: 0.0034080
inclination: 74.0329°
perigee height: 743 km
apogee height: 792 km
right ascension of ascending node: 41.3386°
argument of perigee: 348.5540°
revolutions per day: 14.37240310
mean anomaly at epoch: 11.4834°
orbit number at epoch: 14194

The dashed part of the orbit path shows where the satellite is in the earth's shadow,  

DLR